| time (UTC) | temp F | wind direction | speed knots | gust knots | rain 1hr in | rain 24hr in | rain mn in | humidity % | barometer mb |
| 20260507000036 | 47 | 264 | 0.0 | 3.5 | 0.00 | 0.31 | 0.31 | 88 | 1011.6 |
| 20260506234533 | 47 | 264 | 0.0 | 2.6 | 0.00 | 0.31 | 0.31 | 88 | 1011.6 |
| 20260506233032 | 47 | 264 | 0.0 | 1.7 | 0.00 | 0.31 | 0.31 | 88 | 1011.2 |
| 20260506231532 | 47 | 264 | 0.9 | 2.6 | 0.00 | 0.31 | 0.31 | 88 | 1011.4 |
| 20260506230028 | 47 | 264 | 0.0 | 0.9 | 0.00 | 0.31 | 0.31 | 89 | 1011.2 |
| 20260506224530 | 47 | 264 | 0.9 | 3.5 | 0.00 | 0.31 | 0.31 | 89 | 1011.2 |
| 20260506221525 | 48 | 326 | 1.7 | 4.3 | 0.00 | 0.31 | 0.31 | 90 | 1010.5 |
| 20260506220030 | 47 | 288 | 0.0 | 8.7 | 0.00 | 0.31 | 0.31 | 90 | 1010.3 |
| 20260506214521 | 47 | 286 | 5.2 | 10.4 | 0.00 | 0.31 | 0.31 | 90 | 1010.4 |
| 20260506213018 | 48 | 286 | 1.7 | 7.8 | 0.00 | 0.31 | 0.31 | 90 | 1010.3 |
| 20260506211514 | 48 | 285 | 1.7 | 9.6 | 0.00 | 0.31 | 0.31 | 91 | 1010.0 |
| 20260506210012 | 48 | 289 | 1.7 | 6.1 | 0.00 | 0.31 | 0.31 | 91 | 1009.6 |
| 20260506204509 | 48 | 242 | 0.0 | 7.0 | 0.00 | 0.31 | 0.31 | 91 | 1009.2 |
| 20260506203010 | 48 | 5 | 2.6 | 5.2 | 0.01 | 0.31 | 0.31 | 91 | 1009.1 |
| 20260506201508 | 49 | 286 | 1.7 | 6.1 | 0.01 | 0.31 | 0.31 | 91 | 1008.4 |
| 20260506200008 | 49 | 296 | 0.9 | 7.8 | 0.02 | 0.31 | 0.31 | 91 | 1008.5 |
| 20260506194505 | 49 | 274 | 2.6 | 7.0 | 0.02 | 0.42 | 0.31 | 91 | 1008.5 |
| 20260506193005 | 49 | 298 | 0.9 | 6.1 | 0.01 | 0.41 | 0.30 | 91 | 1008.4 |
| 20260506191503 | 50 | 312 | 0.0 | 5.2 | 0.01 | 0.41 | 0.30 | 90 | 1008.1 |
| 20260506190100 | 50 | 284 | 0.9 | 8.7 | 0.00 | 0.40 | 0.28 | 90 | 1008.0 |
| 20260506184601 | 50 | 302 | 1.7 | 6.1 | 0.01 | 0.40 | 0.28 | 90 | 1007.7 |
| 20260506183057 | 51 | 230 | 0.9 | 7.8 | 0.01 | 0.40 | 0.28 | 90 | 1007.7 |
| 20260506181554 | 51 | 307 | 2.6 | 7.8 | 0.01 | 0.40 | 0.28 | 89 | 1007.2 |
| 20260506180052 | 52 | 53 | 0.9 | 10.4 | 0.01 | 0.40 | 0.28 | 89 | 1007.0 |
| 20260506174548 | 55 | 268 | 2.6 | 8.7 | 0.00 | 0.39 | 0.28 | 88 | 1006.4 |
| 20260506173107 | 59 | 294 | 3.5 | 7.8 | 0.00 | 0.39 | 0.28 | 89 | 1006.2 |
| 20260506171555 | 59 | 169 | 5.2 | 9.6 | 0.00 | 0.39 | 0.28 | 90 | 1006.0 |
| 20260506170048 | 59 | 166 | 7.0 | 12.2 | 0.01 | 0.39 | 0.28 | 91 | 1006.0 |
| 20260506164544 | 59 | 180 | 3.5 | 7.0 | 0.01 | 0.39 | 0.28 | 92 | 1006.2 |
| 20260506163058 | 59 | 167 | 4.3 | 7.0 | 0.01 | 0.39 | 0.28 | 92 | 1006.3 |
| 20260506161543 | 58 | 156 | 3.5 | 6.1 | 0.02 | 0.39 | 0.28 | 91 | 1006.2 |
| 20260506160039 | 58 | 155 | 1.7 | 7.0 | 0.02 | 0.38 | 0.27 | 91 | 1006.4 |
| 20260506154545 | 58 | 159 | 3.5 | 7.8 | 0.03 | 0.38 | 0.27 | 91 | 1006.5 |
| 20260506153040 | 58 | 175 | 2.6 | 6.1 | 0.03 | 0.38 | 0.27 | 91 | 1006.2 |
| 20260506151636 | 58 | 186 | 2.6 | 7.8 | 0.03 | 0.37 | 0.26 | 91 | 1006.5 |
| 20260506150034 | 58 | 159 | 4.3 | 12.2 | 0.02 | 0.36 | 0.25 | 91 | 1006.2 |
| 20260506144537 | 58 | 159 | 4.3 | 7.8 | 0.02 | 0.35 | 0.24 | 91 | 1006.2 |
| 20260506143032 | 57 | 153 | 1.7 | 7.8 | 0.04 | 0.35 | 0.24 | 92 | 1006.1 |
| 20260506141531 | 57 | 163 | 2.6 | 6.1 | 0.05 | 0.34 | 0.23 | 92 | 1006.2 |
| 20260506140038 | 57 | 166 | 3.5 | 5.2 | 0.08 | 0.34 | 0.23 | 91 | 1006.3 |
| 20260506134527 | 56 | 168 | 2.6 | 6.1 | 0.11 | 0.33 | 0.22 | 91 | 1006.3 |
| 20260506133025 | 56 | 146 | 0.0 | 4.3 | 0.12 | 0.31 | 0.20 | 91 | 1006.7 |
| 20260506131524 | 56 | 146 | 0.9 | 4.3 | 0.13 | 0.28 | 0.18 | 91 | 1007.0 |
| 20260506130027 | 56 | 155 | 2.6 | 8.7 | 0.11 | 0.26 | 0.15 | 91 | 1007.2 |
| 20260506124523 | 56 | 157 | 2.6 | 7.0 | 0.07 | 0.22 | 0.11 | 91 | 1007.5 |
| 20260506123022 | 56 | 162 | 2.6 | 6.1 | 0.04 | 0.19 | 0.08 | 91 | 1007.0 |
| 20260506121520 | 55 | 276 | 0.0 | 0.9 | 0.02 | 0.16 | 0.05 | 91 | 1006.9 |
| 20260506120027 | 55 | 276 | 0.0 | 0.0 | 0.01 | 0.15 | 0.04 | 90 | 1006.9 |
| 20260506114521 | 55 | 276 | 0.0 | 1.7 | 0.01 | 0.15 | 0.04 | 90 | 1007.2 |
| 20260506113019 | 54 | 276 | 0.0 | 1.7 | 0.01 | 0.15 | 0.04 | 90 | 1007.3 |
| 20260506111521 | 54 | 276 | 0.0 | 1.7 | 0.01 | 0.14 | 0.03 | 90 | 1007.1 |
| 20260506110018 | 54 | 276 | 0.0 | 0.9 | 0.02 | 0.14 | 0.03 | 89 | 1007.2 |
| 20260506104517 | 54 | 276 | 0.0 | 0.9 | 0.02 | 0.14 | 0.03 | 90 | 1007.2 |
| 20260506103021 | 54 | 276 | 0.0 | 1.7 | 0.02 | 0.14 | 0.03 | 89 | 1007.2 |
| 20260506101517 | 54 | 276 | 0.0 | 1.7 | 0.01 | 0.13 | 0.02 | 89 | 1007.0 |
| 20260506100015 | 54 | 276 | 0.0 | 0.0 | 0.00 | 0.12 | 0.01 | 89 | 1006.8 |
| 20260506094515 | 54 | 276 | 0.0 | 0.9 | 0.00 | 0.12 | 0.01 | 89 | 1006.9 |
| 20260506093018 | 54 | 276 | 0.0 | 0.9 | 0.01 | 0.12 | 0.01 | 88 | 1006.8 |
| 20260506091515 | 54 | 276 | 0.0 | 0.9 | 0.01 | 0.12 | 0.01 | 88 | 1007.0 |
| 20260506084513 | 54 | 276 | 0.0 | 1.7 | 0.01 | 0.12 | 0.01 | 88 | 1007.5 |
| 20260506083009 | 54 | 276 | 0.9 | 1.7 | 0.00 | 0.11 | 0.00 | 88 | 1007.6 |
| 20260506081509 | 54 | 276 | 0.9 | 2.6 | 0.00 | 0.11 | 0.00 | 88 | 1007.6 |
| 20260506073009 | 54 | 276 | 0.0 | 0.9 | 0.00 | 0.11 | 0.00 | 88 | 1007.3 |
| 20260506071507 | 54 | 276 | 0.0 | 0.9 | 0.00 | 0.11 | 0.00 | 87 | 1007.2 |
| 20260506061604 | 55 | 276 | 0.0 | 1.7 | 0.00 | 0.11 | 0.00 | 86 | 1007.9 |
| 20260506044547 | 56 | 276 | 0.0 | 1.7 | 0.00 | 0.11 | 0.00 | 84 | 1009.1 |
| 20260506043051 | 56 | 276 | 0.0 | 0.0 | 0.00 | 0.11 | 0.00 | 83 | 1009.0 |
| 20260506041557 | 56 | 276 | 0.0 | 0.9 | 0.00 | 0.11 | 0.00 | 82 | 1009.0 |
| 20260506040043 | 57 | 276 | 0.0 | 1.7 | 0.00 | 0.11 | 0.00 | 82 | 1009.2 |
| 20260506034541 | 57 | 276 | 0.0 | 1.7 | 0.00 | 0.11 | 0.11 | 83 | 1009.5 |
| 20260506033042 | 57 | 276 | 0.0 | 2.6 | 0.00 | 0.11 | 0.11 | 82 | 1009.7 |
| 20260506031542 | 57 | 276 | 0.0 | 2.6 | 0.00 | 0.11 | 0.11 | 83 | 1009.5 |
| 20260506030038 | 58 | 276 | 0.9 | 5.2 | 0.00 | 0.11 | 0.11 | 85 | 1009.3 |
| 20260506024536 | 59 | 345 | 1.7 | 5.2 | 0.00 | 0.11 | 0.11 | 87 | 1009.4 |
| 20260506023047 | 60 | 294 | 0.9 | 3.5 | 0.00 | 0.11 | 0.11 | 88 | 1009.2 |
| 20260506021533 | 60 | 294 | 0.0 | 2.6 | 0.00 | 0.11 | 0.11 | 88 | 1008.9 |
| 20260506020105 | 61 | 294 | 0.9 | 1.7 | 0.00 | 0.11 | 0.11 | 88 | 1008.7 |
| 20260506014631 | 61 | 294 | 0.0 | 1.7 | 0.00 | 0.11 | 0.11 | 88 | 1008.6 |
| 20260506013030 | 61 | 294 | 0.0 | 0.9 | 0.00 | 0.11 | 0.11 | 88 | 1008.5 |
| 20260506011530 | 61 | 294 | 0.9 | 3.5 | 0.00 | 0.11 | 0.11 | 87 | 1008.0 |
| 20260506010030 | 62 | 294 | 0.9 | 2.6 | 0.00 | 0.11 | 0.11 | 86 | 1007.9 |
| 20260506004527 | 62 | 294 | 0.0 | 0.9 | 0.00 | 0.11 | 0.11 | 86 | 1007.8 |
| 20260506003027 | 63 | 294 | 0.0 | 2.6 | 0.00 | 0.11 | 0.11 | 86 | 1007.4 |
| 20260506001526 | 63 | 294 | 0.0 | 0.0 | 0.00 | 0.11 | 0.11 | 86 | 1007.4 |